Fort Worth, TX

5:23 PM CST on February 14, 2016 (GMT -0600)
Fort Worth Alliance

Weather History for KAFW - August, 2013

Change the Weather History Date:

Friday, August 2, 2013

  Actual Average Record
Temperature  
Mean Temperature 91 °F -  
Max Temperature 104 °F 96 °F 108 °F (1998)
Min Temperature 80 °F 72 °F 62 °F (2014)
Cooling Degree Days 26    
Growing Degree Days 41 (Base 50)    
Moisture  
Dew Point 65 °F    
Average Humidity 44    
Maximum Humidity 67    
Minimum Humidity 27    
Precipitation  
Precipitation 0.00 in - - ()
Sea Level Pressure  
Sea Level Pressure 29.85 in    
Wind  
Wind Speed 9 mph (South)    
Max Wind Speed 15 mph    
Max Gust Speed 22 mph    
Visibility 10 miles    
Events      
Averages and records for this station are not official NWS values.
T = Trace of Precipitation, MM = Missing Value Source: NWS Daily Summary

Daily Weather History Graph

Daily Weather History Graph

Search for Another Location

Airport or City:

Trip Planner

Search our weather history database for the weather conditions in past years. The results will help you decide how hot, cold, wet, or windy it might be!

Date:

Astronomy

Aug. 02, 2013 Rise Set
Actual Time 6:43 AM CDT 8:26 PM CDT
Civil Twilight 6:16 AM CDT 8:53 PM CDT
Nautical Twilight 5:44 AM CDT 9:26 PM CDT
Astronomical Twilight 5:09 AM CDT 10:00 PM CDT
Moon 3:07 AM CDT (8/2) 5:23 PM CDT (8/2)
Length of Visible Light 14h 37m
Length of Day
13h 43m
Waning Crescent, 15% of the Moon is Illuminated
Aug 2
Waning Crescent
Aug 6
New
Aug 14
First Quarter
Aug 20
Full
Aug 28
Last Quarter

Hourly Weather History & Observations

Time (CDT) Temp. Heat Index Dew Point Humidity Pressure Visibility Wind Dir Wind Speed Gust Speed Precip Events Conditions
12:53 AM 87.1 °F 90.6 °F 68.0 °F 53% 29.87 in 10.0 mi SE 12.7 mph - N/A   Clear
1:53 AM 84.9 °F 88.2 °F 68.0 °F 57% 29.87 in 10.0 mi SE 9.2 mph - N/A   Clear
2:53 AM 84.0 °F 87.0 °F 68.0 °F 58% 29.86 in 10.0 mi SE 10.4 mph 17.3 mph N/A   Clear
3:53 AM 82.9 °F 85.8 °F 68.0 °F 60% 29.85 in 10.0 mi South 5.8 mph - N/A   Clear
4:53 AM 82.0 °F 84.9 °F 68.0 °F 62% 29.84 in 10.0 mi South 8.1 mph - N/A   Clear
5:53 AM 82.0 °F 84.9 °F 68.0 °F 62% 29.86 in 10.0 mi South 6.9 mph - N/A   Clear
6:53 AM 80.1 °F 82.7 °F 68.0 °F 67% 29.86 in 10.0 mi Calm Calm - N/A   Clear
7:53 AM 84.0 °F 87.0 °F 68.0 °F 58% 29.86 in 10.0 mi South 6.9 mph - N/A   Clear
8:53 AM 88.0 °F 89.6 °F 64.9 °F 46% 29.87 in 10.0 mi SW 11.5 mph 17.3 mph N/A   Clear
9:53 AM 91.0 °F 93.0 °F 64.9 °F 42% 29.87 in 10.0 mi SSW 11.5 mph 20.7 mph N/A   Clear
10:53 AM 93.9 °F 97.0 °F 66.0 °F 40% 29.88 in 10.0 mi SW 15.0 mph 21.9 mph N/A   Clear
11:53 AM 97.0 °F 99.9 °F 64.9 °F 35% 29.89 in 10.0 mi SW 10.4 mph - N/A   Clear
12:53 PM 100.0 °F 103.6 °F 64.9 °F 32% 29.88 in 10.0 mi South 8.1 mph 17.3 mph N/A   Partly Cloudy
1:53 PM 100.9 °F 104.0 °F 64.0 °F 30% 29.85 in 10.0 mi South 10.4 mph 16.1 mph N/A   Scattered Clouds
2:53 PM 102.0 °F 104.6 °F 63.0 °F 28% 29.83 in 10.0 mi South 11.5 mph - N/A   Scattered Clouds
3:53 PM 102.0 °F 105.2 °F 64.0 °F 29% 29.81 in 10.0 mi South 9.2 mph 18.4 mph N/A   Scattered Clouds
4:53 PM 100.9 °F 102.7 °F 62.1 °F 28% 29.81 in 10.0 mi South 8.1 mph 20.7 mph N/A   Scattered Clouds
5:53 PM 100.9 °F 102.1 °F 61.0 °F 27% 29.80 in 10.0 mi Variable 4.6 mph 16.1 mph N/A   Partly Cloudy
6:53 PM 99.0 °F 100.5 °F 62.1 °F 30% 29.80 in 10.0 mi South 9.2 mph 18.4 mph N/A   Partly Cloudy
7:53 PM 96.1 °F 96.4 °F 61.0 °F 31% 29.81 in 10.0 mi SSE 11.5 mph 19.6 mph N/A   Clear
8:53 PM 91.9 °F 91.8 °F 61.0 °F 35% 29.82 in 10.0 mi South 8.1 mph - N/A   Clear
9:53 PM 89.1 °F 89.3 °F 62.1 °F 40% 29.85 in 10.0 mi SSE 6.9 mph - N/A   Clear
10:53 PM 86.0 °F 86.8 °F 63.0 °F 46% 29.86 in 10.0 mi South 5.8 mph - N/A   Clear
11:53 PM 84.0 °F 84.9 °F 63.0 °F 49% 29.86 in 10.0 mi South 4.6 mph - N/A   Clear